Torna al catalogo

BEIDOU 3M23

AttivoNavigazioneMEO
NORAD 44542·PAYLOAD·🇨🇳 China

Lanciato Sep 22, 2019 da Xichang Satellite Launch Center

Loading…

Prossimi Passaggi (prossime 24 ore)

TLE

AggiornatoSource: Space-Track

Epoca: Sep 13, 2026, 07:16 UTC

1 44542U 19061A   26256.30302000  .00000007  00000-0  00000-0 0  9992
2 44542  54.3939 179.7577 0009249  12.2289 347.8030  1.86229339 47431

Traccia BEIDOU 3M23 in tempo reale con AllMySat

Download on the App Store